Location: ShareBrained
(45.5589°N, 122.6491°W)
Time: 00:37:38
(UTC-08:00)

NOAA 19 - Pass Details

Date: 24 September 2023
Orbit: 839 x 860 km, 99.1° (Epoch: 08 December)

Event Time Altitude Azimuth Distance (km) Brightness Sun altitude
Exits shadow 21:31:41 46° 186° (S) 1,126 5.6 -25.7°
Maximum altitude 21:33:19 73° 256° (WSW) 890 5.3 -25.9°
Drops below altitude 10° 21:38:51 10° 342° (NNW) 2,492 8.2 -26.8°
Sets 21:41:15 0° 344° (NNW) 3,435 9.0 -27.2°
